This is the latest recevied weather packets stored in our database for station/object WA7CUG. If no packets are shown the sender has not sent any weather packets the latest 10 day(s).
| Time | Temp. | Humidity | Pressure | Rain* | Wind** | Luminosity | Snow |
|---|---|---|---|---|---|---|---|
| 1777691811 | 20.56° C | 40% | 1014.8 hPa | 0 mm | - | 2 W/m² | - |
| 1777691508 | 20.56° C | 41% | 1014.7 hPa | 0 mm | - | 2 W/m² | - |
| 1777691207 | 19.44° C | 42% | 1014.7 hPa | 0 mm | - | 4 W/m² | - |
| 1777690905 | 19.44° C | 47% | 1014.6 hPa | 0 mm | - | 6 W/m² | - |
| 1777690611 | 19.44° C | 46% | 1014.6 hPa | 0 mm | - | 8 W/m² | - |
| 1777690300 | 20° C | 45% | 1014.8 hPa | 0 mm | - | 11 W/m² | - |
| 1777689997 | 20.56° C | 47% | 1014.6 hPa | 0 mm | - | 13 W/m² | - |
| 1777689695 | 20.56° C | 43% | 1014.5 hPa | 0 mm | - | 16 W/m² | - |
| 1777689393 | 20° C | 39% | 1014.5 hPa | 0 mm | - | 20 W/m² | - |
| 1777689090 | 20° C | 51% | 1014.5 hPa | 0 mm | - | 24 W/m² | - |
| 1777688787 | 20° C | 53% | 1014.4 hPa | 0 mm | - | 30 W/m² | - |
| 1777688484 | 20.56° C | 48% | 1014.3 hPa | 0 mm | - | 35 W/m² | - |
| 1777688181 | 21.11° C | 48% | 1014.5 hPa | 0 mm | - | 41 W/m² | - |
| 1777687878 | 21.67° C | 38% | 1014.5 hPa | 0 mm | - | 45 W/m² | - |
| 1777687576 | 21.67° C | 46% | 1014.4 hPa | 0 mm | - | 48 W/m² | - |
| 1777687272 | 21.67° C | 49% | 1014.4 hPa | 0 mm | - | 52 W/m² | - |
| 1777686970 | 22.22° C | 51% | 1014.3 hPa | 0 mm | - | 53 W/m² | - |
| 1777686666 | 23.33° C | 37% | 1014.3 hPa | 0 mm | - | 53 W/m² | - |
| 1777686364 | 23.89° C | 42% | 1014.3 hPa | 0 mm | - | 60 W/m² | - |
| 1777686061 | 24.44° C | 42% | 1014.4 hPa | 0 mm | - | 70 W/m² | - |
| 1777685755 | 25.56° C | 41% | 1014.5 hPa | 0 mm | - | 109 W/m² | - |
| 1777685452 | 25.56° C | 35% | 1014.5 hPa | 0 mm | - | 102 W/m² | - |
| 1777685150 | 26.11° C | 33% | 1014.4 hPa | 0 mm | - | 146 W/m² | - |
| 1777684848 | 26.67° C | 34% | 1014.6 hPa | 0 mm | - | 167 W/m² | - |
| 1777684544 | 26.11° C | 34% | 1014.5 hPa | 0 mm | - | 208 W/m² | - |
* Rain latest hour (hover to see other rain measurements)
** Current wind speed in m/s (hover to see current wind gust speed)